EDT,Max TemperatureF,Mean TemperatureF,Min TemperatureF,Max Dew PointF,MeanDew PointF,Min DewpointF,Max Humidity, Mean Humidity, Min Humidity, Max Sea Level PressureIn, Mean Sea Level PressureIn, Min Sea Level PressureIn, Max VisibilityMiles, Mean VisibilityMiles, Min VisibilityMiles, Max Wind SpeedMPH, Mean Wind SpeedMPH, Max Gust SpeedMPH,PrecipitationIn, CloudCover, Events, WindDirDegrees
2012-9-1,80,76,71,74,71,68,94,86,74,30.08,30.05,29.99,10,8,4,9,4,,0.00,4,Rain-Thunderstorm,125
2012-9-2,82,76,69,72,70,68,94,83,69,30.01,29.94,29.88,10,8,2,17,10,23,0.07,5,Rain,87
2012-9-3,89,77,66,72,68,64,93,76,53,29.93,29.90,29.85,10,10,6,9,7,,0.00,0,,75
2012-9-4,84,75,66,70,68,65,94,84,58,29.92,29.88,29.84,10,6,0,9,2,,0.00,4,Fog,354
2012-9-5,80,72,64,70,66,63,100,84,66,29.91,29.86,29.80,10,7,0,31,5,45,0.57,2,Fog-Rain-Thunderstorm,214
2012-9-6,82,74,62,68,62,53,93,72,42,29.93,29.89,29.84,10,9,5,14,5,23,0.00,1,Rain,279
2012-9-7,82,70,57,66,61,55,94,81,49,29.93,29.82,29.74,10,8,2,17,4,21,0.39,3,Rain,204
2012-9-8,71,62,53,57,52,49,93,74,49,29.88,29.81,29.74,10,10,3,17,8,24,0.20,4,Rain,309
2012-9-9,72,61,51,54,52,48,100,78,49,30.12,29.97,29.86,10,8,0,12,4,,0.13,3,Fog-Rain,335
2012-9-10,75,60,46,51,47,43,93,70,37,30.25,30.18,30.13,10,8,1,8,1,,0.01,0,,124
2012-9-11,80,66,51,55,51,47,86,62,38,30.22,30.17,30.12,10,10,7,13,6,23,0.00,0,,181
2012-9-12,82,68,55,58,54,50,81,60,38,30.23,30.18,30.14,10,10,10,13,7,20,0.00,0,,186
2012-9-13,81,72,61,61,58,54,81,65,45,30.26,30.22,30.17,10,10,10,14,7,,0.00,7,,225
2012-9-14,73,62,51,56,51,44,94,77,39,30.33,30.29,30.26,10,8,4,14,8,21,0.37,5,Rain,349
2012-9-15,75,60,46,52,48,45,93,69,39,30.34,30.27,30.17,10,10,7,7,1,,0.00,0,,147
2012-9-16,77,62,48,52,48,44,93,63,32,30.17,30.09,30.02,10,10,10,10,4,17,0.00,0,,186
2012-9-17,77,62,50,62,54,46,87,72,51,30.01,29.88,29.72,10,10,6,14,5,,0.00,2,,185
2012-9-18,64,56,46,63,52,34,90,78,44,30.03,29.78,29.69,10,9,2,17,8,28,0.20,7,Rain-Thunderstorm,320
2012-9-19,70,54,41,42,39,36,89,58,31,30.13,30.05,29.96,10,10,10,20,6,28,0.00,1,,195
2012-9-20,70,60,48,53,45,39,86,60,39,29.95,29.90,29.87,10,10,3,16,11,24,0.09,3,Rain-Thunderstorm,232
2012-9-21,70,58,46,52,45,38,94,73,33,29.96,29.89,29.80,10,10,5,14,5,21,0.01,4,Rain,206
2012-9-22,57,50,46,49,46,43,100,89,69,30.14,29.88,29.77,10,5,0,18,6,26,0.00,6,Fog-Rain-Thunderstorm,250
2012-9-23,57,48,37,41,37,34,93,71,47,30.26,30.21,30.14,10,10,8,16,6,23,0.18,2,,278
2012-9-24,68,51,36,38,34,29,93,58,25,30.25,30.13,29.97,10,10,10,21,6,26,0.06,0,,212
2012-9-25,69,60,51,59,49,37,90,67,53,29.97,29.92,29.88,10,9,2,15,9,,0.01,6,,193
2012-9-26,73,64,55,63,59,47,94,83,61,30.13,29.97,29.88,10,5,1,13,6,,0.00,7,,274
2012-9-27,70,60,50,55,50,45,84,72,57,30.19,30.15,30.12,10,10,10,12,5,,0.00,5,,71
2012-9-28,69,57,48,51,49,46,93,79,54,30.15,30.13,30.09,10,9,4,10,4,,0.00,4,,73
2012-9-29,72,56,42,51,44,39,100,85,35,30.12,30.08,29.96,10,4,0,15,1,16,0.00,1,Fog,306
2012-9-30,66,52,39,49,43,39,100,80,43,29.98,29.94,29.91,10,6,0,13,3,17,0.00,0,Fog,23